This is the latest recevied weather packets stored in our database for station/object W3BRL. If no packets are shown the sender has not sent any weather packets the latest 10 day(s).
| Time | Temp. | Humidity | Pressure | Rain* | Wind** | Luminosity | Snow |
|---|---|---|---|---|---|---|---|
| 1777684327 | 5.56° C | 91% | 1011.6 hPa | 0 mm | - | 0 W/m² | - |
| 1777684026 | 5.56° C | 91% | 1011.6 hPa | 0 mm | - | 0 W/m² | - |
| 1777683721 | 5.56° C | 91% | 1011.2 hPa | 0 mm | - | 0 W/m² | - |
| 1777683419 | 5.56° C | 91% | 1011.2 hPa | 0 mm | - | 0 W/m² | - |
| 1777683116 | 5.56° C | 91% | 1011.1 hPa | 0 mm | - | 0 W/m² | - |
| 1777682812 | 5.56° C | 91% | 1010.8 hPa | 0 mm | - | 0 W/m² | - |
| 1777682509 | 5.56° C | 91% | 1010.7 hPa | 0 mm | - | 0 W/m² | - |
| 1777682207 | 5.56° C | 90% | 1010.7 hPa | 0 mm | - | 0 W/m² | - |
| 1777681904 | 6.11° C | 90% | 1010.5 hPa | 0 mm | - | 0 W/m² | - |
| 1777681600 | 6.11° C | 90% | 1010.4 hPa | 0 mm | - | 0 W/m² | - |
| 1777681298 | 6.11° C | 89% | 1009.9 hPa | 0 mm | - | 1 W/m² | - |
| 1777680995 | 6.11° C | 88% | 1009.7 hPa | 0 mm | - | 2 W/m² | - |
| 1777680692 | 6.11° C | 88% | 1009.7 hPa | 0 mm | - | 2 W/m² | - |
| 1777680390 | 6.67° C | 88% | 1010 hPa | 0 mm | - | 3 W/m² | - |
| 1777680087 | 6.67° C | 88% | 1009.9 hPa | 0 mm | - | 6 W/m² | - |
| 1777679783 | 7.22° C | 88% | 1009.6 hPa | 0 mm | - | 6 W/m² | - |
| 1777679480 | 7.78° C | 89% | 1009.3 hPa | 1.78 mm | - | 7 W/m² | - |
| 1777679175 | 8.33° C | 90% | 1009.4 hPa | 1.78 mm | - | 5 W/m² | - |
| 1777678873 | 8.33° C | 91% | 1009 hPa | 1.27 mm | - | 2 W/m² | - |
| 1777678571 | 8.33° C | 92% | 1009 hPa | 3.05 mm | - | 3 W/m² | - |
| 1777678268 | 8.33° C | 91% | 1008.9 hPa | 4.32 mm | - | 3 W/m² | - |
| 1777677964 | 8.33° C | 91% | 1008.8 hPa | 1.27 mm | - | 4 W/m² | - |
| 1777677661 | 8.33° C | 91% | 1008.6 hPa | 0 mm | - | 5 W/m² | - |
| 1777677359 | 8.33° C | 90% | 1008.7 hPa | 0 mm | - | 5 W/m² | - |
| 1777677056 | 8.33° C | 90% | 1008.8 hPa | 0 mm | - | 25 W/m² | - |
* Rain latest hour (hover to see other rain measurements)
** Current wind speed in m/s (hover to see current wind gust speed)